Athens Eleftherios, Greece

2:04 PM EEST on March 26, 2017 (GMT +0300)
Eleftherios Venizelos International

Weather History for LGAV - August, 2013

Change the Weather History Date:

Tuesday, August 27, 2013

  Actual Average Record
Temperature  
Mean Temperature 80 °F -  
Max Temperature 93 °F - - ()
Min Temperature 68 °F - - ()
Cooling Degree Days 16    
Growing Degree Days 30 (Base 50)    
Moisture  
Dew Point 56 °F    
Average Humidity 42    
Maximum Humidity 64    
Minimum Humidity 23    
Precipitation  
Precipitation 0.00 in - - ()
Sea Level Pressure  
Sea Level Pressure 29.87 in    
Wind  
Wind Speed 4 mph ()    
Max Wind Speed 12 mph    
Max Gust Speed -    
T = Trace of Precipitation, MM = Missing Value Source: Averaged Metar Reports

Daily Weather History Graph

Daily Weather History Graph

Search for Another Location

Airport or City:

Trip Planner

Search our weather history database for the weather conditions in past years. The results will help you decide how hot, cold, wet, or windy it might be!

Date:

Astronomy

Aug. 27, 2013 Rise Set
Actual Time 6:49 AM EEST 8:01 PM EEST
Civil Twilight 6:22 AM EEST 8:28 PM EEST
Nautical Twilight 5:50 AM EEST 9:00 PM EEST
Astronomical Twilight 5:16 AM EEST 9:34 PM EEST
Moon 11:48 PM EEST (8/27) 1:23 PM EEST (8/27)
Length of Visible Light 14h 05m
Length of Day
13h 11m
Waning Gibbous, 60% of the Moon is Illuminated
Aug 27
Waning Gibbous
Aug 28
Last Quarter
Sep 5
New
Sep 12
First Quarter
Sep 19
Full

Hourly Weather History & Observations

Time (EEST) Temp. Heat Index Dew Point Humidity Pressure Visibility Wind Dir Wind Speed Gust Speed Precip Events Conditions
12:20 AM 71.6 °F - 57.2 °F 60% 29.89 in - Variable 1.2 mph - N/A   Clear
12:50 AM 71.6 °F - 57.2 °F 60% 29.89 in - Variable 2.3 mph - N/A   Clear
1:20 AM 73.4 °F - 57.2 °F 57% 29.89 in - South 2.3 mph - N/A   Clear
1:50 AM 78.8 °F - 57.2 °F 47% 29.89 in - SSE 2.3 mph - N/A   Clear
2:20 AM 73.4 °F - 55.4 °F 53% 29.89 in - East 1.2 mph - N/A   Clear
2:50 AM 75.2 °F - 57.2 °F 53% 29.86 in - ENE 3.5 mph - N/A   Clear
3:20 AM 69.8 °F - 55.4 °F 60% 29.89 in - Variable 3.5 mph - N/A   Clear
3:50 AM 69.8 °F - 55.4 °F 60% 29.86 in - South 2.3 mph - N/A   Clear
4:20 AM 73.4 °F - 57.2 °F 57% 29.86 in - Variable 2.3 mph - N/A   Clear
4:50 AM 69.8 °F - 55.4 °F 60% 29.86 in - East 3.5 mph - N/A   Clear
5:20 AM 73.4 °F - 59.0 °F 61% 29.86 in - ESE 4.6 mph - N/A   Clear
5:50 AM 71.6 °F - 57.2 °F 60% 29.86 in - East 4.6 mph - N/A   Clear
6:20 AM 68.0 °F - 55.4 °F 64% 29.86 in - Variable 1.2 mph - N/A   Clear
6:50 AM 71.6 °F - 57.2 °F 60% 29.89 in - WSW 3.5 mph - N/A   Clear
7:20 AM 71.6 °F - 55.4 °F 57% 29.89 in - WNW 3.5 mph - N/A   Clear
7:50 AM 75.2 °F - 57.2 °F 53% 29.89 in - Variable 1.2 mph - N/A   Clear
8:20 AM 75.2 °F - 57.2 °F 53% 29.89 in - Variable 2.3 mph - N/A   Clear
8:50 AM 78.8 °F - 59.0 °F 51% 29.89 in - Variable 1.2 mph - N/A   Clear
9:20 AM 82.4 °F 82.9 °F 60.8 °F 48% 29.89 in - Variable 1.2 mph - N/A   Clear
9:50 AM 84.2 °F 83.5 °F 57.2 °F 40% 29.89 in - Variable 2.3 mph - N/A   Clear
10:20 AM 86.0 °F 84.5 °F 55.4 °F 35% 29.89 in - Variable 1.2 mph - N/A   Clear
10:50 AM 87.8 °F 86.5 °F 57.2 °F 35% 29.89 in - Variable 3.5 mph - N/A   Clear
11:20 AM 89.6 °F 88.1 °F 57.2 °F 33% 29.89 in - ENE 5.8 mph - N/A   Clear
11:50 AM 89.6 °F 87.3 °F 53.6 °F 29% 29.89 in - NE 8.1 mph - N/A   Clear
12:20 PM 91.4 °F - 51.8 °F 26% 29.89 in - NE 5.8 mph - N/A   Clear
12:50 PM 93.2 °F - 50.0 °F 23% 29.89 in - SE 5.8 mph - N/A   Clear
1:20 PM 93.2 °F - 50.0 °F 23% 29.89 in - East 6.9 mph - N/A   Clear
1:50 PM 93.2 °F - 51.8 °F 24% 29.89 in - ENE 6.9 mph - N/A   Clear
2:20 PM 93.2 °F 90.8 °F 53.6 °F 26% 29.86 in - East 11.5 mph - N/A   Clear
2:50 PM 93.2 °F 91.3 °F 55.4 °F 28% 29.86 in - SE 8.1 mph - N/A   Clear
3:20 PM 93.2 °F - 51.8 °F 24% 29.86 in - SE 9.2 mph - N/A   Clear
3:50 PM 93.2 °F - 51.8 °F 24% 29.83 in - ESE 9.2 mph - N/A   Clear
4:20 PM 93.2 °F 91.3 °F 55.4 °F 28% 29.83 in - East 8.1 mph - N/A   Clear
4:50 PM 93.2 °F 91.9 °F 57.2 °F 30% 29.83 in - ESE 10.4 mph - N/A   Clear
5:20 PM 91.4 °F 89.1 °F 53.6 °F 28% 29.83 in - ESE 11.5 mph - N/A   Clear
5:50 PM 89.6 °F 87.7 °F 55.4 °F 31% 29.83 in - SE 10.4 mph - N/A   Clear
6:20 PM 89.6 °F 87.7 °F 55.4 °F 31% 29.83 in - South 5.8 mph - N/A   Clear
6:50 PM 87.8 °F 87.6 °F 60.8 °F 40% 29.83 in - SSW 9.2 mph - N/A   Clear
7:20 PM 84.2 °F 84.4 °F 60.8 °F 45% 29.86 in - SSW 9.2 mph - N/A   Clear
7:50 PM 82.4 °F 82.9 °F 60.8 °F 48% 29.86 in - SSW 10.4 mph - N/A   Clear
8:20 PM 82.4 °F 82.0 °F 57.2 °F 42% 29.86 in - SW 8.1 mph - N/A   Clear
8:50 PM 82.4 °F 81.7 °F 55.4 °F 39% 29.86 in - Variable 1.2 mph - N/A   Clear
9:20 PM 82.4 °F 81.7 °F 55.4 °F 39% 29.86 in - WSW 4.6 mph - N/A   Clear
9:50 PM 82.4 °F 81.4 °F 53.6 °F 37% 29.86 in - SW 6.9 mph - N/A   Clear
10:20 PM 82.4 °F 81.4 °F 53.6 °F 37% 29.86 in - SW 8.1 mph - N/A   Clear
10:50 PM 82.4 °F 81.4 °F 53.6 °F 37% 29.86 in - SW 5.8 mph - N/A   Clear
11:20 PM 80.6 °F 80.5 °F 55.4 °F 42% 29.86 in - SW 4.6 mph - N/A   Clear
11:50 PM 80.6 °F 80.3 °F 53.6 °F 39% 29.86 in - Variable 2.3 mph - N/A   Clear